7 * 24
多渠道服务支持
STARLINK-2373是美国SpaceX公司星链(Starlink)卫星互联网项目中的一颗低轨通信卫星,于2021年3月11日发射升空。作为星链星座组网的组成部分,它运行在近地轨道,旨在为全球偏远地区、网络基础设施薄弱区域提供低延迟、高速率的宽带互联网服务。该卫星依托星链项目规模化组网优势,助力实现全球互联网覆盖,是SpaceX构建星链低轨卫星星座过程中的一环。
美国
(US)
| 数据来源 | 国际轨道数据 |
| 星历时间: | 2026-09-11T02:29:20+0800 15小时前 查看轨道信息 |
| 半长轴: | 6819.599km |
| 偏心率: | 0.0002683 |
| 轨道倾角: | 53.153° |
| 近地点辐角 | 124.214° |
| 升交点赤经 | 93.519° |
| 平近点角 | 235.912° |
| 近地点: | 439.632km |
| 远地点: | 443.292km |
| 周期: | 93.411分钟 |
| 每日圈数: | 15.415745 |